Location: Dal�� Lhota
(48.7500°N, 14.0167°E)
Time: 22:54:04
(UTC+00:00)

CREW DRAGON DEMO-1 DEB - Pass Details

Date: 24 September 2020
Orbit: 361 x 364 km, 51.6° (Epoch: 25 October)

Event Time Altitude Azimuth Distance (km) Brightness Sun altitude
Rises 18:32:18 0° 290° (WNW) 2,200 8.6 -16.3°
Reaches altitude 10° 18:34:23 10° 282° (WNW) 1,351 6.9 -16.7°
Maximum altitude 18:37:15 40° 211° (SSW) 550 3.7 -17.1°
Enters shadow 18:37:52 35° 178° (S) 611 3.6 -17.2°
